This is the latest recevied weather packets stored in our database for station/object TG8ARF-18. If no packets are shown the sender has not sent any weather packets the latest 10 day(s).
| Time | Temp. | Humidity | Pressure | Rain* | Wind** | Luminosity | Snow |
|---|---|---|---|---|---|---|---|
| 1778210721 | 15° C | 92% | 1017 hPa | 0 mm | - | - | - |
| 1778210120 | 17.22° C | 91% | 1017 hPa | 0 mm | - | - | - |
| 1778209519 | 16.11° C | 91% | 1017 hPa | 0 mm | - | - | - |
| 1778208919 | 15° C | 91% | 1017 hPa | 0 mm | - | - | - |
| 1778208318 | 17.22° C | 92% | 1017 hPa | 0 mm | - | - | - |
| 1778207717 | 16.11° C | 92% | 1017 hPa | 0 mm | - | - | - |
| 1778207117 | 15° C | 92% | 1017 hPa | 0 mm | - | - | - |
| 1778206516 | 17.22° C | 90% | 1017 hPa | 0 mm | - | - | - |
| 1778205915 | 17.22° C | 90% | 1017 hPa | 0 mm | - | - | - |
| 1778205315 | 16.11° C | 90% | 1016 hPa | 0 mm | - | - | - |
| 1778204714 | 15° C | 90% | 1016 hPa | 0 mm | - | - | - |
| 1778204114 | 17.22° C | 89% | 1016 hPa | 0 mm | - | - | - |
| 1778203513 | 16.11° C | 89% | 1015 hPa | 0 mm | - | - | - |
| 1778202912 | 16.11° C | 89% | 1015 hPa | 0 mm | - | - | - |
| 1778202312 | 15° C | 89% | 1015 hPa | 0 mm | - | - | - |
| 1778201711 | 18.33° C | 88% | 1015 hPa | 0.76 mm | - | - | - |
| 1778201110 | 17.22° C | 88% | 1015 hPa | 0.76 mm | - | - | - |
| 1778200510 | 18.33° C | 88% | 1015 hPa | 1.52 mm | - | - | - |
| 1778199909 | 18.89° C | 89% | 1015 hPa | 1.78 mm | - | - | - |
| 1778199309 | 17.78° C | 89% | 1015 hPa | 1.52 mm | - | - | - |
| 1778198708 | 16.67° C | 89% | 1015 hPa | 0.51 mm | - | - | - |
| 1778198107 | 15.56° C | 89% | 1015 hPa | 0.51 mm | - | - | - |
| 1778197507 | 20.56° C | 88% | 1014 hPa | 0.76 mm | - | - | - |
| 1778196906 | 19.44° C | 88% | 1014 hPa | 0.76 mm | - | - | - |
| 1778196305 | 18.89° C | 87% | 1013 hPa | 0.51 mm | - | - | - |
* Rain latest hour (hover to see other rain measurements)
** Current wind speed in m/s (hover to see current wind gust speed)